{"data":{"norad_id":66197,"intl_designator":"2025-243W","name":"STARLINK-35259","alt_names":[],"object_type":"PAYLOAD","status":"ACTIVE","operator":null,"country":"US","launch_date":"2025-10-26","launch_site_code":"AFETR","launch_vehicle":null,"mission":null,"orbit_class":"UNKNOWN","rcs_meters":null,"size_class":null,"mass_kg":null,"dimensions":null,"purposes":["comms"],"wikipedia_slug":null,"has_3d_model":false,"image_url":null,"decayed_at":null,"tle_current":{"epoch":"2026-05-24T17:16:28.541856Z","epoch_age_seconds":103298,"freshness":"FRESH","line1":"1 66197U 25243W   26144.71977479  .00021512  00000+0  73630-3 0  9995","line2":"2 66197  53.1575 252.1487 0000756  34.1479 325.9571 15.30201167 32296","mean_motion":15.30201167,"eccentricity":7.56e-5,"inclination_deg":53.1575,"raan_deg":252.1487,"arg_perigee_deg":34.1479,"mean_anomaly_deg":325.9571,"bstar":0.0007363,"rev_number":3229,"period_min":94.105273937489,"perigee_km":474.69347181687,"apogee_km":475.72969812291,"semimajor_km":6853.3485849699,"source":"CELESTRAK","updated_at":"2026-05-25T13:38:21.123590Z"}}}